Location: Cieszkowy
(50.3290°N, 20.5336°E)
Time: 22:41:06
(UTC+00:00)

SL-24 DEB - Pass Details

Date: 15 June 2024
Orbit: 651 x 679 km, 92.0° (Epoch: 18 July)

Event Time Altitude Azimuth Distance (km) Brightness Sun altitude
Rises 01:20:15 0° 3° (N) 2,989 8.6 -8.1°
Reaches altitude 10° 01:22:29 10° 3° (N) 2,076 7.7 -7.9°
Maximum altitude 01:27:03 82° 277° (W) 670 4.2 -7.5°
Drops below altitude 10° 01:31:36 10° 190° (S) 2,074 6.2 -7.0°
Enters shadow 01:32:45 - 189° (S) 2,541 6.7 -6.9°
